WGS F8 (USA 272)

Last updated on Thu Nov 21 2024 00:02:43 GMT+0000 (Coordinated Universal Time)

1 41879U 16075A 24324.67086684 -.00000201 00000+0 00000+0 0 9990 2 41879 0.0056 25.9083 0000188 333.2309 91.3874 1.00268855 29063
UTC large
Height (km)
Speed (km/s)
/
Latitude / Longitude
Inclination (degrees)
Orbital Period (minutes)
Azimuth
Elevation
Range (km)
Doppler Factor

Next 0 passes for location: London (51.5072 / 0.1276)

Sorry there are no passes over London.